TimeCDT,TemperatureF,Dew PointF,Humidity,Sea Level PressureIn,VisibilityMPH,Wind Direction,Wind SpeedMPH,Gust SpeedMPH,PrecipitationIn,Events,Conditions,WindDirDegrees,DateUTC
12:15 AM,49.1,34.3,57,29.94,10.0,Calm,Calm,-,N/A,,Clear,0,2013-10-02 05:15:00
12:35 AM,45.0,34.5,67,29.95,10.0,WSW,3.5,-,N/A,,Clear,250,2013-10-02 05:35:00
12:55 AM,42.1,33.6,72,29.96,10.0,West,4.6,-,N/A,,Clear,260,2013-10-02 05:55:00
1:15 AM,45.3,34.5,66,29.96,10.0,WNW,5.8,-,N/A,,Clear,290,2013-10-02 06:15:00
1:35 AM,48.7,34.0,57,29.97,10.0,West,4.6,-,N/A,,Clear,280,2013-10-02 06:35:00
1:55 AM,45.0,33.4,64,29.97,10.0,West,4.6,-,N/A,,Clear,260,2013-10-02 06:55:00
2:15 AM,44.6,33.8,66,29.97,10.0,West,4.6,-,N/A,,Clear,270,2013-10-02 07:15:00
2:35 AM,43.7,33.6,68,29.97,10.0,West,4.6,-,N/A,,Clear,260,2013-10-02 07:35:00
2:55 AM,41.9,33.6,72,29.98,10.0,WSW,5.8,-,N/A,,Clear,250,2013-10-02 07:55:00
3:15 AM,40.1,33.8,78,29.99,10.0,West,6.9,-,N/A,,Clear,260,2013-10-02 08:15:00
3:35 AM,42.4,33.8,71,29.99,10.0,West,6.9,-,N/A,,Clear,260,2013-10-02 08:35:00
3:55 AM,39.9,34.0,79,30.00,10.0,West,5.8,-,N/A,,Clear,260,2013-10-02 08:55:00
4:15 AM,40.1,34.5,80,30.00,10.0,WSW,5.8,-,N/A,,Clear,250,2013-10-02 09:15:00
4:35 AM,38.7,33.8,83,30.00,10.0,WSW,5.8,-,N/A,,Clear,250,2013-10-02 09:35:00
4:55 AM,38.1,35.1,89,30.01,10.0,WSW,4.6,-,N/A,,Clear,240,2013-10-02 09:55:00
5:15 AM,39.2,34.3,83,30.01,10.0,WSW,3.5,-,N/A,,Clear,240,2013-10-02 10:15:00
5:35 AM,38.5,34.0,84,30.02,10.0,SW,3.5,-,N/A,,Clear,230,2013-10-02 10:35:00
5:55 AM,37.4,36.3,96,30.02,10.0,Calm,Calm,-,N/A,,Clear,0,2013-10-02 10:55:00
6:15 AM,37.0,35.4,94,30.03,10.0,Calm,Calm,-,N/A,,Clear,0,2013-10-02 11:15:00
6:35 AM,38.1,37.4,97,30.03,10.0,Calm,Calm,-,N/A,,Clear,0,2013-10-02 11:35:00
6:55 AM,37.2,36.5,97,30.03,10.0,Calm,Calm,-,N/A,,Clear,0,2013-10-02 11:55:00
7:15 AM,35.6,34.3,95,30.04,10.0,Calm,Calm,-,N/A,,Clear,0,2013-10-02 12:15:00
7:35 AM,34.5,34.0,98,30.05,10.0,Calm,Calm,-,N/A,,Clear,0,2013-10-02 12:35:00
7:55 AM,38.3,37.6,97,30.05,10.0,Calm,Calm,-,N/A,,Clear,0,2013-10-02 12:55:00
8:15 AM,43.5,38.3,82,30.06,10.0,SW,3.5,-,N/A,,Clear,230,2013-10-02 13:15:00
8:35 AM,47.1,38.8,73,30.06,10.0,SW,4.6,-,N/A,,Clear,230,2013-10-02 13:35:00
8:55 AM,50.2,39.0,66,30.06,10.0,SW,4.6,-,N/A,,Clear,230,2013-10-02 13:55:00
9:15 AM,53.6,38.5,57,30.07,10.0,WSW,4.6,-,N/A,,Clear,250,2013-10-02 14:15:00
9:35 AM,56.3,37.9,50,30.07,10.0,West,5.8,-,N/A,,Clear,270,2013-10-02 14:35:00
9:55 AM,58.1,37.8,47,30.07,10.0,West,4.6,-,N/A,,Clear,260,2013-10-02 14:55:00
10:15 AM,60.4,36.3,41,30.07,10.0,West,4.6,-,N/A,,Clear,270,2013-10-02 15:15:00
10:35 AM,62.4,32.9,33,30.07,10.0,West,6.9,-,N/A,,Clear,280,2013-10-02 15:35:00
10:55 AM,63.5,31.8,31,30.07,10.0,West,6.9,-,N/A,,Clear,280,2013-10-02 15:55:00
11:15 AM,64.9,32.7,30,30.07,10.0,West,8.1,-,N/A,,Clear,260,2013-10-02 16:15:00
11:35 AM,65.8,32.7,29,30.08,10.0,WNW,8.1,-,N/A,,Clear,300,2013-10-02 16:35:00
11:55 AM,66.9,32.7,28,30.08,10.0,WSW,8.1,-,N/A,,Clear,250,2013-10-02 16:55:00
12:15 PM,66.7,32.0,27,30.09,10.0,NW,5.8,-,N/A,,Clear,310,2013-10-02 17:15:00
12:35 PM,67.5,32.7,28,30.09,10.0,WSW,6.9,-,N/A,,Clear,250,2013-10-02 17:35:00
12:55 PM,67.5,32.0,27,30.08,10.0,WSW,5.8,-,N/A,,Clear,240,2013-10-02 17:55:00
1:15 PM,67.5,32.0,27,30.06,10.0,West,6.9,-,N/A,,Clear,260,2013-10-02 18:15:00
1:35 PM,68.7,32.4,26,30.06,10.0,West,4.6,-,N/A,,Clear,260,2013-10-02 18:35:00
1:55 PM,68.7,29.3,23,30.05,10.0,NNW,4.6,-,N/A,,Clear,330,2013-10-02 18:55:00
2:15 PM,68.4,28.8,23,30.05,10.0,North,4.6,-,N/A,,Clear,350,2013-10-02 19:15:00
2:35 PM,67.8,28.8,23,30.05,10.0,Calm,Calm,-,N/A,,Clear,0,2013-10-02 19:35:00
2:55 PM,68.9,30.6,24,30.05,10.0,Calm,Calm,-,N/A,,Clear,0,2013-10-02 19:55:00
3:15 PM,68.2,30.6,25,30.04,10.0,NNW,3.5,-,N/A,,Clear,340,2013-10-02 20:15:00
3:35 PM,68.9,31.5,25,30.04,10.0,Calm,Calm,-,N/A,,Clear,0,2013-10-02 20:35:00
3:55 PM,69.1,32.7,26,30.03,10.0,South,4.6,-,N/A,,Clear,170,2013-10-02 20:55:00
4:15 PM,68.9,30.4,24,30.02,10.0,West,3.5,-,N/A,,Clear,260,2013-10-02 21:15:00
4:35 PM,68.9,30.4,24,30.02,10.0,SE,3.5,-,N/A,,Clear,130,2013-10-02 21:35:00
4:55 PM,68.2,30.2,24,30.02,10.0,SSW,3.5,-,N/A,,Clear,210,2013-10-02 21:55:00
5:15 PM,68.0,31.5,26,30.02,10.0,ESE,3.5,-,N/A,,Clear,120,2013-10-02 22:15:00
5:35 PM,67.1,32.9,28,30.02,10.0,ESE,4.6,-,N/A,,Clear,120,2013-10-02 22:35:00
5:55 PM,65.1,33.4,31,30.01,10.0,East,4.6,-,N/A,,Clear,100,2013-10-02 22:55:00
6:15 PM,63.5,33.1,32,30.01,10.0,East,3.5,-,N/A,,Clear,100,2013-10-02 23:15:00
6:35 PM,61.5,34.0,36,30.01,10.0,Calm,Calm,-,N/A,,Clear,0,2013-10-02 23:35:00
6:55 PM,55.9,38.3,52,30.01,10.0,Calm,Calm,-,N/A,,Clear,0,2013-10-02 23:55:00
7:15 PM,54.9,38.5,54,30.00,10.0,SE,3.5,-,N/A,,Clear,130,2013-10-03 00:15:00
7:35 PM,51.8,39.7,63,30.01,10.0,Calm,Calm,-,N/A,,Clear,0,2013-10-03 00:35:00
7:55 PM,49.1,39.0,68,30.01,10.0,SSE,3.5,-,N/A,,Clear,160,2013-10-03 00:55:00
8:15 PM,50.5,39.9,67,29.99,10.0,ESE,6.9,-,N/A,,Clear,120,2013-10-03 01:15:00
8:35 PM,54.9,37.4,52,29.99,10.0,SE,3.5,-,N/A,,Scattered Clouds,130,2013-10-03 01:35:00
8:55 PM,50.7,38.7,63,30.00,10.0,Calm,Calm,-,N/A,,Mostly Cloudy,0,2013-10-03 01:55:00
9:15 PM,50.2,41.5,72,30.01,10.0,NNW,5.8,-,N/A,,Overcast,340,2013-10-03 02:15:00
9:35 PM,54.3,40.6,60,30.05,10.0,NNW,9.2,-,N/A,,Overcast,330,2013-10-03 02:35:00
9:55 PM,55.6,39.0,54,30.04,10.0,Calm,Calm,-,N/A,,Overcast,0,2013-10-03 02:55:00
10:15 PM,54.0,43.2,67,30.03,10.0,NE,3.5,-,N/A,,Overcast,50,2013-10-03 03:15:00
10:35 PM,53.8,41.9,64,30.01,10.0,ESE,4.6,-,N/A,,Overcast,110,2013-10-03 03:35:00
10:55 PM,54.7,42.3,63,30.01,10.0,Calm,Calm,-,N/A,,Overcast,0,2013-10-03 03:55:00
11:15 PM,55.0,41.9,61,30.01,10.0,ESE,3.5,-,N/A,,Overcast,120,2013-10-03 04:15:00
11:35 PM,55.2,42.4,62,30.01,10.0,ESE,3.5,-,N/A,,Overcast,110,2013-10-03 04:35:00
11:55 PM,52.7,46.0,78,30.01,10.0,Calm,Calm,-,N/A,,Overcast,0,2013-10-03 04:55:00